OBJECT E, 62733

Orbit data source: Space-Track

You're viewing an Uncataloged Satellite

Recently launched and/or uncataloged satellites may have evolving metadata. Metadata may include but not limited to: Owner, Maufacturer, Bus, Motor, and Mission.

OBJECT E, 62733 is a Chinese satellite in SSO that was launched on Mon, 20 Jan 2025 UTC via a GUSHENXING 1 launch vehicle from the Jiuquan Satellite Launch Center, China (JSC). Unknown objects in Earth's orbit typically refer to objects detected orbiting the Earth but have not yet been identified or cataloged. These objects could be anything from previously untracked satellites, spent rocket stages, debris from satellite collisions, or even natural meteoroids temporarily captured by Earth's gravity.

Loading next visibility...
Identifier
62733, 2025-013E
Orbit
SSO
Last TLE update
9 hours ago
Origin
Flag of CNJTXZ (CN / PRC)
Manufacturer
ZKRG
Mission
Operational Commercial Imaging
Bus & Motor
XINGYUN-01, Unknown motor
Mass
~50 kg wet, ~50 kg dry
Launch date (UTC)
2025-01-20 (5 months ago)
Launch vehicle
GUSHENXING 1
Launch site
Jiuquan Satellite Launch Center, China (JSC)
Object type
Unknown
Shape & HBR
Box + 2 Pan, 5 m
Radar Cross Section
5.545 m², Medium (>0.1 m² and < 1m²)

Expand to show TLE details & history

TLE from 9 hours ago
0 OBJECT E
1 62733U 25013E   25182.87265030  .00003493  00000-0  23191-3 0  9999
2 62733  97.6275 348.4720 0009846 133.1511 227.0541 15.07848302 24374
Epoch: 2025-07-01T20:56Z
TLE epoch observation values (Epoch: 2025-07-01T20:56:36.985Z)
Latitude
-0.00011°
Longitude
114.15604°
Altitude
550.491 km
Speed
7.584 km/s
True Right ascension
23h 13m 53s
True Declination
0° 00' 00"
Sunlit
Object was in daylight at epoch
Visualization orbit readout
Latitude
-82.07404°
Longitude
-138.53148°
Altitude
575.993 km
Speed
7.569 km/s
Apparent Right ascension
05h 52m 58s
Apparent Declination
-61° 51' 22"
Sunlit
Object is in daylight
Visualization observer readout
Local Sidereal Time
17:47:04
Azimuth
181.862° SSW
Elevation
-68.042°
Doppler factor
1
Orbital elements
Apogee altitude
546.579 km
Perigee altitude
532.957 km
Semi-major axis
6,917.905 km
Eccentricity
0.00098
Inclination
97.6275°
RAAN
348.472°
Arg. of periapsis
133.1511°
True anomaly
Unknown
Mean anomaly
227.0541°
Eccentric anomaly
Unknown
Mean motion
3.77208 °/min
Orbital period
95.44 mins
BSTAR
0.00023191
Loading maneuver chart data...
Loading SW <> Apogee altitude chart data...
Loading historical data...
Loading historical data...
Loading historical data...
Loading historical data...
Loading historical data...
Loading historical data...
Loading historical data...
Other satellites on launch #13 in the year 2025 (2025-01-20 UTC)

OBJECT E Visibility forecast

Observer location: undefined°, undefined°

Span
Click to sort rows by Start time (UTC) header in descending order
Start Az.
Max El. time (UTC)
Max El. Az.
Max El.
End time (UTC)
End Az.
6 mins2025-07-02 11:24:23.801Z188.705° SSW2025-07-02 11:27:23.801Z274.587° WNW37.253°2025-07-02 11:30:23.801Z334.603° NNW
4 mins2025-07-02 23:01:23.801Z63.9° ENE2025-07-02 23:03:23.801Z101.788° ESE16.806°2025-07-02 23:05:23.801Z134.698° SE
5 mins2025-07-03 00:35:23.801Z338.894° N2025-07-03 00:37:23.801Z295.756° NW25.964°2025-07-03 00:40:23.801Z232.885° WSW
|